Location: Владивосток
(43.1151°N, 131.8856°E)
Time: 16:25:09
(UTC+10:00)

SEEDS - Pass Details

Date: 29 April 2024
Orbit: 551 x 562 km, 97.7° (Epoch: 19 May)

Event Time Altitude Azimuth Distance (km) Brightness Sun altitude
Rises 04:24:53 0° 25° (NNE) 2,737 ? -17.2°
Reaches altitude 10° 04:27:19 10° 38° (NE) 1,837 ? -16.8°
Maximum altitude 04:30:38 25° 95° (E) 1,135 ? -16.4°
Drops below altitude 10° 04:33:55 10° 152° (SSE) 1,825 ? -15.9°
Enters shadow 04:36:06 - 165° (SSE) 2,626 ? -15.6°
